ROMMA est une association bénévole à but non lucratif. Votre soutien est indispensable : ADHERER à ROMMA ou FAIRE un DON

Crempigny - (74, Haute-Savoie)

Albanais-Montagne des Princes (500 m)   Longitude: 05° 54' 5" E   Latitude: 45° 57' 0" N Station partenaire n°10
 

Détail journalier du     <<     >>

Température Precipitation Humidité Pression Vent Dir Rafale Dir. rafale Ensol.
Heure (°C) (mm) (%) (hPa) (km/h) (km/h) (min)
01:00 10.40.89710036NO19NNO0
02:00 10.409810031SSO8SSO0
03:00 10.209810031SO5ESE0
04:00 10.309810031SO5SO0
05:00 10.109910032SO6ONO0
06:00 10.30.49910041ONO3ONO0
07:00 10.609910041ONO5ONO0
08:00 10.719910052SO6SO0
09:00 11.10.69910052SO8SSO0
10:00 12.509110064SO11NO0
11:00 12.308810065SSO21O0
12:00 12.508110077OSO19OSO0
13:00 12.208210075SSE16SSE0
14:00 13.108010079S26SE0
15:00 13.6078100811SE31ESE0
16:00 13.1080100814S32SSO0
17:00 13.4075100815SO32SO0
18:00 13.9081100810SE29SSO0
19:00 14.107810085SSE15SSE0
20:00 13.808510093S10SSE0
21:00 13.408710092SSE8SSE0
22:00 13.208910093S10OSO0
23:00 13.208710094SSO8SSO0
minuit 12.808910093SO8OSO0

Graphique du 05-06-2020

 

Serveur OMMA